sat.trackr.live / text

‹ back to catalog

STARLINK-2298

NORAD 48022 · 2021-024AX

PAYLOAD ACTIVE UNKNOWN

§ Identity

Operator
Country
US
Launch date
2021-03-24
Launch site
AFETR
Launch vehicle
Mass (kg)
RCS (m²)

Purposes: comms

External: N2YO · Heavens-Above · Gunter

§ Orbital elements

Epoch: 2026-09-13T04:28:07.655808Z

Period
91.07 min
Inclination
53.1140°
Eccentricity
0.0004117
Mean motion
15.81254800 rev/d
Perigee alt
324.1 km
Apogee alt
329.7 km
Semi-major
6,705.0 km
B*
5.0343e-4
RAAN
145.7636°
Arg perigee
127.0071°
Mean anomaly
233.1329°
Rev number
30,381

§ Raw data

STARLINK-22981 48022U 21024AX  26256.18619972  .00101668  00000+0  50343-3 0  99982 48022  53.1140 145.7636 0004117 127.0071 233.1329 15.81254800303817

JSON: /api/v1/satellites/48022 · /tle

For live sub-satellite position, see the globe view (requires WebGL).

§ Visibility from observer

Set your observer location to see the next 7 days of passes ≥ 10°. The values pass through the URL so the page stays shareable.

No JS? Fill the form by hand. The geolocation button needs JavaScript.